Weather in Volno-Nadezgdinskoe

Russia / Primorsky Krai     43°22′18″N   131°59′23″E
temp.,
°C
wind,
m/s
gust,
m/s
humid.,
%
clouds,
%
prec.,
mm/h
press.,
hPa
HPBL,
m
24 september, fri
fri2401:00+13n3785100 0.0 1022363
04:00+13n4783100 0.0 1023382
07:00+12n479222 0.0 1025301
10:00+15n57760 0.0 1027562
13:00+18n34570 0.0 10261030
16:00+19nnw33551 0.0 1025973
19:00+16n23690 0.0 102694
22:00+14n11730 0.0 102767
25 september, sat
sat2501:00+13n11804 0.0 102879
04:00+12ene1285100 0.0 102877
07:00+12ene1189100 0.0 102865
10:00+15ese1282100 0.0 1028245
13:00+16sse3683100 0.1 1027478
16:00+17s4787100 0.2 1026531
19:00+17s4786100 0.3 1026393
22:00+17s4788100 0.4 1026340
26 september, sun
sun2601:00+17s3587100 0.2 1025264
04:00+17s3587100 0.4 1025247
07:00+17s3488100 0.2 1025192
10:00+18sse248478 0.4 1025328
13:00+19s457559 0.1 1024622
16:00+19s457538 0.1 1022570
19:00+17s34859 0.0 1022116
22:00+17s35894 0.0 1022151
27 september, mon
mon2701:00+16s24913 0.0 1022161
04:00+16s239188 0.1 1021140
07:00+15sse2491100 0.0 1020207
10:00+18s5782100 0.1 1020665
13:00+19s687413 0.1 1019822
16:00+18s6875100 0.1 1018749
19:00+17s588095 0.0 1018515
22:00+17s478038 0.0 1019393
28 september, tue
tue2801:00+17s478299 0.1 1018411
04:00+16sse358546 0.3 1018291
07:00+16sse248699 0.0 1018245
10:00+17sse4580100 0.1 1018518
13:00+18s5676100 0.0 1017565
16:00+18s6773100 0.0 1016587
19:00+17s5878100 0.0 1016394
22:00+16sse51089100 0.0 1014549